QPF
0.00 0.00 0.00 0.00 0.00 0.00 0.00 0.00 0.00 0.00 0.00 0.00 0.00 0.00 0.00 0.00 0.00 0.00 0.00 0.00 0.00 0.00 0.00 0.00 0.00 0.00 0.00 0.00 0.00 0.00 0.00 0.00 0.00 0.00 0.00 0.01 0.01 0.02
0.01 0.01 0.00 0.00 0.00 0.00 0.00 0.00 0.00 0.00 0.00 0.00 0.00 0.00 0.00 0.00 0.00 0.00 0.00 0.00 0.00 0.00 0.00 0.00 0.00 0.00 0.00 0.00 0.00 0.00 0.00 0.00 0.00 0.00 0.00 0.00 0.00 0.00
0.02 0.01 0.01 0.01 0.01 0.01 0.00 0.00 0.00 0.00 0.00 0.00 0.00 0.00 0.00 0.00 0.00 0.00 0.00 0.00 0.00 0.01 0.01 0.00 0.00 0.00 0.00 0.00 0.00 0.00 0.00 0.00 0.00 0.00 0.00 0.00 0.00 0.00
0.04 0.03 0.02 0.02 0.02 0.02 0.01 0.01 0.01 0.00 0.00 0.00 0.00 0.00 0.00 0.01 0.01 0.01 0.01 0.01 0.01 0.01 0.01 0.00 0.00 0.00 0.00 0.00 0.00 0.00 0.00 0.00 0.00 0.00 0.00 0.00 0.00 0.00
0.05 0.05 0.05 0.04 0.03 0.03 0.03 0.02 0.01 0.01 0.01 0.01 0.00 0.01 0.01 0.01 0.02 0.01 0.01 0.01 0.01 0.01 0.01 0.01 0.01 0.01 0.01 0.01 0.01 0.00 0.00 0.00 0.00 0.00 0.00 0.00 0.00 0.00
0.08 0.08 0.08 0.08 0.07 0.06 0.04 0.03 0.02 0.02 0.02 0.01 0.01 0.01 0.01 0.01 0.02 0.03 0.03 0.03 0.02 0.02 0.01 0.01 0.01 0.01 0.01 0.01 0.01 0.00 0.00 0.00 0.00 0.00 0.00 0.00 0.00 0.00
0.09 0.08 0.07 0.08 0.07 0.07 0.06 0.04 0.04 0.03 0.03 0.02 0.01 0.01 0.01 0.02 0.03 0.03 0.04 0.04 0.03 0.03 0.03 0.03 0.02 0.02 0.02 0.02 0.02 0.02 0.01 0.01 0.01 0.00 0.00 0.00 0.00 0.00
0.09 0.06 0.05 0.05 0.05 0.06 0.07 0.07 0.05 0.03 0.02 0.02 0.01 0.01 0.01 0.02 0.02 0.03 0.03 0.03 0.02 0.02 0.05 0.04 0.03 0.04 0.04 0.03 0.03 0.03 0.03 0.02 0.02 0.02 0.01 0.01 0.00 0.00
0.06 0.05 0.04 0.04 0.05 0.04 0.05 0.05 0.04 0.03 0.02 0.02 0.01 0.01 0.01 0.01 0.02 0.02 0.02 0.02 0.02 0.02 0.03 0.02 0.03 0.04 0.03 0.03 0.03 0.03 0.03 0.03 0.03 0.03 0.03 0.02 0.02 0.02
0.06 0.05 0.04 0.03 0.03 0.03 0.02 0.02 0.03 0.03 0.04 0.03 0.02 0.02 0.02 0.02 0.03 0.03 0.03 0.02 0.02 0.01 0.02 0.02 0.01 0.02 0.02 0.02 0.02 0.03 0.03 0.03 0.03 0.03 0.03 0.03 0.03 0.02
0.05 0.04 0.04 0.04 0.05 0.03 0.02 0.02 0.02 0.02 0.03 0.02 0.02 0.02 0.02 0.02 0.01 0.02 0.02 0.03 0.03 0.03 0.03 0.05 0.03 0.02 0.02 0.02 0.02 0.04 0.04 0.04 0.04 0.04 0.04 0.03 0.02 0.02
0.03 0.03 0.02 0.02 0.02 0.02 0.02 0.02 0.03 0.03 0.03 0.03 0.03 0.02 0.01 0.01 0.01 0.01 0.01 0.01 0.01 0.01 0.02 0.03 0.03 0.03 0.03 0.02 0.02 0.03 0.03 0.03 0.03 0.03 0.03 0.03 0.03 0.02
0.01 0.01 0.00 0.00 0.01 0.01 0.01 0.02 0.02 0.02 0.01 0.01 0.01 0.01 0.00 0.00 0.00 0.00 0.01 0.01 0.01 0.01 0.01 0.02 0.01 0.02 0.02 0.01 0.01 0.01 0.01 0.02 0.02 0.02 0.03 0.03 0.02 0.02
0.00 0.00 0.00 0.00 0.00 0.00 0.00 0.00 0.00 0.00 0.00 0.00 0.00 0.00 0.00 0.00 0.00 0.00 0.00 0.01 0.01 0.01 0.01 0.01 0.01 0.01 0.01 0.01 0.00 0.00 0.00 0.00 0.01 0.01 0.01 0.02 0.02 0.02
0.00 0.00 0.00 0.00 0.00 0.00 0.00 0.00 0.00 0.00 0.00 0.00 0.00 0.00 0.00 0.00 0.00 0.00 0.00 0.00 0.00 0.01 0.01 0.01 0.01 0.01 0.01 0.01 0.01 0.01 0.00 0.00 0.00 0.00 0.00 0.00 0.00 0.00
0.00 0.00 0.00 0.00 0.00 0.00 0.00 0.00 0.00 0.00 0.00 0.00 0.00 0.00 0.00 0.00 0.00 0.00 0.00 0.00 0.00 0.00 0.00 0.00 0.00 0.01 0.01 0.01 0.01 0.01 0.01 0.00 0.00 0.00 0.00 0.00 0.00 0.00
0.00 0.00 0.00 0.00 0.00 0.00 0.00 0.00 0.00 0.00 0.00 0.00 0.00 0.00 0.00 0.00 0.00 0.00 0.00 0.00 0.00 0.00 0.00 0.00 0.00 0.01 0.01 0.01 0.01 0.01 0.01 0.00 0.00 0.00 0.01 0.00 0.00 0.00
0.01 0.01 0.00 0.00 0.00 0.00 0.00 0.00 0.00 0.00 0.00 0.00 0.00 0.00 0.01 0.01 0.01 0.00 0.00 0.00 0.00 0.00 0.00 0.00 0.00 0.00 0.01 0.01 0.01 0.01 0.01 0.01 0.01 0.01 0.01 0.01 0.01 0.00
0.00 0.00 0.00 0.00 0.00 0.00 0.00 0.00 0.00 0.00 0.00 0.00 0.00 0.01 0.01 0.00 0.00 0.00 0.00 0.00 0.00 0.00 0.00 0.00 0.00 0.00 0.01 0.01 0.00 0.01 0.01 0.01 0.01 0.01 0.01 0.01 0.01 0.01
0.00 0.00 0.00 0.00 0.00 0.00 0.00 0.00 0.00 0.00 0.00 0.00 0.00 0.00 0.00 0.00 0.00 0.00 0.00 0.00 0.00 0.00 0.00 0.00 0.00 0.01 0.01 0.01 0.01 0.00 0.01 0.01 0.01 0.01 0.01 0.01 0.01 0.01
0.00 0.00 0.00 0.00 0.00 0.00 0.00 0.00 0.00 0.00 0.00 0.00 0.00 0.00 0.00 0.00 0.00 0.00 0.00 0.00 0.00 0.00 0.00 0.00 0.01 0.01 0.01 0.01 0.01 0.01 0.01 0.02 0.02 0.02 0.02 0.02 0.01 0.01
0.00 0.00 0.00 0.00 0.00 0.00 0.00 0.00 0.00 0.00 0.00 0.00 0.00 0.00 0.00 0.00 0.00 0.01 0.01 0.01 0.00 0.01 0.01 0.01 0.01 0.01 0.02 0.02 0.02 0.02 0.01 0.01 0.02 0.02 0.03 0.03 0.02 0.02
0.00 0.00 0.00 0.00 0.00 0.00 0.00 0.00 0.00 0.00 0.00 0.00 0.00 0.00 0.00 0.00 0.00 0.01 0.01 0.01 0.01 0.01 0.01 0.01 0.01 0.01 0.02 0.02 0.02 0.02 0.02 0.02 0.01 0.01 0.01 0.02 0.03 0.02
MSLP
1018.41 1018.68 1018.98 1019.29 1019.55 1019.75 1019.85 1019.86 1019.77 1019.59 1019.35 1019.08 1018.80 1018.53 1018.28 1018.08 1017.92 1017.81 1017.75 1017.74 1017.78 1017.86 1017.97 1018.10 1018.24 1018.36 1018.46 1018.53 1018.56 1018.57 1018.56 1018.56 1018.57 1018.61 1018.67 1018.74 1018.80 1018.84
1018.23 1018.47 1018.71 1018.96 1019.18 1019.34 1019.44 1019.46 1019.41 1019.29 1019.13 1018.92 1018.70 1018.48 1018.25 1018.05 1017.86 1017.70 1017.58 1017.51 1017.48 1017.51 1017.57 1017.67 1017.78 1017.89 1017.98 1018.05 1018.08 1018.10 1018.10 1018.10 1018.12 1018.15 1018.21 1018.28 1018.34 1018.39
1018.06 1018.27 1018.48 1018.68 1018.86 1018.99 1019.07 1019.10 1019.08 1019.02 1018.91 1018.78 1018.62 1018.45 1018.25 1018.05 1017.84 1017.65 1017.47 1017.33 1017.23 1017.19 1017.19 1017.23 1017.30 1017.38 1017.45 1017.50 1017.54 1017.55 1017.56 1017.56 1017.58 1017.62 1017.68 1017.74 1017.81 1017.86
1017.96 1018.16 1018.35 1018.52 1018.66 1018.76 1018.83 1018.86 1018.86 1018.82 1018.77 1018.69 1018.59 1018.45 1018.29 1018.09 1017.88 1017.65 1017.42 1017.22 1017.05 1016.93 1016.86 1016.83 1016.84 1016.88 1016.91 1016.94 1016.95 1016.96 1016.95 1016.96 1016.97 1017.01 1017.06 1017.13 1017.20 1017.25
1017.95 1018.17 1018.35 1018.51 1018.63 1018.71 1018.75 1018.77 1018.77 1018.75 1018.72 1018.68 1018.61 1018.51 1018.37 1018.18 1017.96 1017.71 1017.45 1017.19 1016.96 1016.77 1016.63 1016.53 1016.47 1016.43 1016.41 1016.39 1016.37 1016.35 1016.32 1016.31 1016.31 1016.34 1016.38 1016.45 1016.51 1016.57
1018.06 1018.30 1018.50 1018.66 1018.77 1018.83 1018.85 1018.85 1018.83 1018.81 1018.78 1018.74 1018.69 1018.61 1018.49 1018.32 1018.10 1017.84 1017.56 1017.27 1016.99 1016.74 1016.52 1016.35 1016.21 1016.10 1016.01 1015.92 1015.84 1015.77 1015.70 1015.66 1015.63 1015.63 1015.66 1015.71 1015.77 1015.82
1018.29 1018.56 1018.78 1018.94 1019.05 1019.09 1019.10 1019.07 1019.03 1018.98 1018.93 1018.89 1018.83 1018.76 1018.65 1018.49 1018.29 1018.04 1017.76 1017.45 1017.14 1016.84 1016.56 1016.31 1016.09 1015.90 1015.72 1015.55 1015.40 1015.26 1015.13 1015.03 1014.97 1014.93 1014.93 1014.96 1015.00 1015.05
1018.62 1018.90 1019.14 1019.32 1019.42 1019.46 1019.45 1019.39 1019.32 1019.24 1019.17 1019.10 1019.03 1018.96 1018.86 1018.72 1018.54 1018.30 1018.03 1017.72 1017.40 1017.06 1016.74 1016.42 1016.12 1015.84 1015.57 1015.31 1015.07 1014.85 1014.65 1014.48 1014.36 1014.27 1014.23 1014.23 1014.24 1014.27
1019.01 1019.31 1019.56 1019.75 1019.86 1019.89 1019.87 1019.79 1019.69 1019.58 1019.47 1019.38 1019.30 1019.22 1019.12 1019.00 1018.83 1018.62 1018.37 1018.07 1017.74 1017.38 1017.01 1016.64 1016.27 1015.90 1015.54 1015.19 1014.86 1014.55 1014.27 1014.04 1013.84 1013.70 1013.61 1013.56 1013.54 1013.53
1019.46 1019.75 1020.01 1020.20 1020.32 1020.36 1020.33 1020.24 1020.12 1019.99 1019.86 1019.74 1019.64 1019.55 1019.45 1019.33 1019.18 1018.99 1018.75 1018.46 1018.12 1017.75 1017.35 1016.93 1016.49 1016.05 1015.62 1015.19 1014.77 1014.38 1014.03 1013.71 1013.45 1013.25 1013.09 1012.99 1012.92 1012.88
1019.94 1020.23 1020.48 1020.69 1020.82 1020.87 1020.84 1020.75 1020.62 1020.48 1020.33 1020.19 1020.07 1019.96 1019.85 1019.73 1019.58 1019.39 1019.15 1018.86 1018.51 1018.12 1017.69 1017.23 1016.74 1016.25 1015.75 1015.25 1014.77 1014.32 1013.89 1013.51 1013.19 1012.91 1012.70 1012.53 1012.41 1012.31
1020.47 1020.74 1021.00 1021.21 1021.35 1021.42 1021.40 1021.32 1021.20 1021.04 1020.88 1020.72 1020.58 1020.44 1020.31 1020.17 1020.00 1019.79 1019.53 1019.22 1018.85 1018.44 1017.98 1017.48 1016.97 1016.43 1015.89 1015.35 1014.83 1014.32 1013.84 1013.41 1013.02 1012.68 1012.40 1012.17 1011.98 1011.82
1021.03 1021.30 1021.55 1021.77 1021.93 1022.01 1022.02 1021.95 1021.83 1021.68 1021.51 1021.33 1021.16 1020.99 1020.82 1020.64 1020.43 1020.17 1019.88 1019.53 1019.12 1018.67 1018.18 1017.66 1017.12 1016.56 1016.00 1015.43 1014.88 1014.34 1013.82 1013.34 1012.89 1012.50 1012.15 1011.85 1011.59 1011.38
1021.64 1021.90 1022.15 1022.38 1022.55 1022.65 1022.67 1022.62 1022.51 1022.36 1022.17 1021.98 1021.77 1021.57 1021.34 1021.10 1020.83 1020.52 1020.17 1019.76 1019.31 1018.82 1018.29 1017.74 1017.18 1016.60 1016.03 1015.45 1014.88 1014.31 1013.77 1013.24 1012.75 1012.29 1011.87 1011.51 1011.19 1010.91
1022.26 1022.52 1022.78 1023.01 1023.19 1023.30 1023.34 1023.29 1023.19 1023.03 1022.84 1022.62 1022.38 1022.13 1021.85 1021.55 1021.21 1020.82 1020.39 1019.92 1019.41 1018.87 1018.30 1017.72 1017.13 1016.54 1015.95 1015.36 1014.77 1014.19 1013.61 1013.04 1012.50 1011.98 1011.50 1011.07 1010.70 1010.37
1022.88 1023.14 1023.40 1023.63 1023.81 1023.92 1023.95 1023.92 1023.81 1023.65 1023.45 1023.21 1022.94 1022.65 1022.32 1021.95 1021.53 1021.08 1020.57 1020.03 1019.45 1018.84 1018.23 1017.60 1016.98 1016.37 1015.75 1015.14 1014.52 1013.91 1013.29 1012.68 1012.08 1011.51 1010.98 1010.49 1010.07 1009.71
1023.46 1023.72 1023.97 1024.19 1024.36 1024.45 1024.48 1024.44 1024.33 1024.17 1023.96 1023.71 1023.42 1023.09 1022.71 1022.29 1021.82 1021.29 1020.71 1020.09 1019.45 1018.78 1018.10 1017.42 1016.75 1016.09 1015.43 1014.78 1014.12 1013.45 1012.79 1012.12 1011.47 1010.85 1010.27 1009.75 1009.30 1008.92
1023.98 1024.23 1024.46 1024.65 1024.79 1024.87 1024.88 1024.83 1024.72 1024.56 1024.35 1024.09 1023.80 1023.45 1023.04 1022.58 1022.06 1021.47 1020.84 1020.15 1019.43 1018.69 1017.95 1017.20 1016.47 1015.74 1015.01 1014.29 1013.57 1012.84 1012.12 1011.40 1010.70 1010.03 1009.42 1008.89 1008.43 1008.06
1024.42 1024.64 1024.84 1025.00 1025.11 1025.16 1025.15 1025.09 1024.98 1024.82 1024.62 1024.37 1024.08 1023.72 1023.31 1022.82 1022.27 1021.64 1020.95 1020.21 1019.42 1018.61 1017.79 1016.97 1016.15 1015.34 1014.54 1013.73 1012.93 1012.14 1011.35 1010.57 1009.84 1009.15 1008.53 1008.00 1007.57 1007.23
1024.78 1024.97 1025.13 1025.24 1025.31 1025.34 1025.31 1025.24 1025.13 1024.98 1024.79 1024.56 1024.28 1023.93 1023.51 1023.02 1022.44 1021.78 1021.05 1020.26 1019.41 1018.53 1017.64 1016.74 1015.83 1014.94 1014.04 1013.16 1012.28 1011.42 1010.58 1009.77 1009.01 1008.32 1007.72 1007.22 1006.83 1006.55
1025.09 1025.23 1025.34 1025.41 1025.45 1025.44 1025.39 1025.32 1025.21 1025.07 1024.90 1024.68 1024.41 1024.07 1023.65 1023.15 1022.56 1021.88 1021.11 1020.27 1019.38 1018.44 1017.48 1016.51 1015.53 1014.56 1013.59 1012.64 1011.71 1010.80 1009.93 1009.11 1008.36 1007.70 1007.14 1006.69 1006.37 1006.15
1025.35 1025.44 1025.51 1025.54 1025.53 1025.50 1025.44 1025.36 1025.26 1025.13 1024.96 1024.75 1024.48 1024.14 1023.72 1023.21 1022.60 1021.89 1021.10 1020.23 1019.30 1018.32 1017.31 1016.29 1015.27 1014.24 1013.24 1012.25 1011.30 1010.38 1009.52 1008.72 1008.01 1007.40 1006.91 1006.53 1006.28 1006.13
1025.57 1025.62 1025.64 1025.64 1025.61 1025.56 1025.49 1025.40 1025.29 1025.16 1024.99 1024.77 1024.49 1024.14 1023.70 1023.16 1022.53 1021.81 1020.99 1020.10 1019.15 1018.15 1017.13 1016.09 1015.05 1014.03 1013.02 1012.05 1011.11 1010.23 1009.42 1008.69 1008.05 1007.52 1007.11 1006.81 1006.62 1006.52
Thickness
5719 5719 5717 5717 5717 5717 5715 5713 5706 5700 5701 5709 5714 5719 5719 5717 5716 5714 5713 5711 5709 5708 5706 5704 5703 5701 5700 5699 5698 5696 5695 5694 5693 5692 5691 5690 5688 5687
5716 5715 5714 5714 5714 5713 5712 5711 5709 5704 5699 5705 5710 5715 5716 5715 5714 5712 5711 5709 5707 5705 5703 5702 5701 5699 5698 5696 5695 5694 5693 5692 5690 5689 5688 5687 5686 5685
5712 5711 5710 5710 5709 5709 5708 5707 5705 5702 5698 5701 5706 5709 5710 5710 5709 5708 5706 5704 5702 5701 5700 5699 5698 5696 5695 5693 5692 5691 5689 5688 5687 5686 5685 5684 5683 5682
5707 5706 5706 5706 5704 5703 5702 5701 5700 5699 5696 5694 5697 5700 5702 5703 5702 5701 5700 5699 5698 5697 5696 5695 5694 5692 5691 5689 5688 5687 5685 5684 5682 5681 5680 5679 5679 5678
5703 5702 5701 5700 5698 5697 5696 5695 5694 5694 5692 5689 5689 5691 5692 5694 5693 5693 5693 5692 5691 5690 5690 5689 5688 5687 5686 5684 5683 5681 5680 5678 5677 5676 5675 5674 5674 5673
5698 5697 5696 5695 5693 5691 5690 5688 5688 5686 5685 5682 5681 5681 5681 5683 5682 5681 5680 5681 5681 5682 5682 5681 5680 5679 5678 5677 5676 5675 5673 5672 5671 5670 5669 5668 5668 5667
5692 5690 5689 5688 5687 5686 5684 5681 5680 5677 5675 5673 5671 5670 5670 5669 5668 5669 5668 5669 5671 5671 5670 5671 5671 5670 5670 5668 5667 5667 5666 5665 5664 5663 5662 5662 5661 5660
5684 5682 5680 5679 5678 5678 5676 5674 5672 5668 5666 5663 5661 5659 5659 5658 5657 5657 5655 5654 5655 5658 5656 5658 5658 5658 5658 5658 5657 5657 5656 5656 5655 5655 5654 5654 5653 5652
5674 5672 5670 5668 5667 5666 5665 5663 5661 5659 5657 5653 5650 5648 5647 5647 5645 5644 5642 5640 5641 5644 5642 5643 5645 5644 5646 5646 5645 5645 5644 5644 5644 5643 5643 5644 5644 5643
5662 5659 5657 5655 5654 5653 5652 5650 5647 5645 5644 5641 5639 5637 5636 5635 5633 5631 5629 5628 5628 5629 5628 5626 5629 5629 5632 5631 5631 5630 5629 5629 5629 5630 5630 5631 5631 5631
5650 5647 5646 5643 5642 5641 5639 5635 5633 5630 5630 5628 5626 5624 5622 5621 5619 5616 5614 5612 5610 5611 5610 5608 5610 5611 5614 5615 5615 5613 5612 5612 5613 5614 5615 5616 5617 5618
5637 5635 5633 5631 5629 5627 5624 5620 5617 5614 5613 5612 5610 5608 5606 5604 5602 5598 5595 5592 5590 5590 5591 5589 5589 5590 5592 5595 5595 5594 5594 5594 5595 5597 5598 5600 5601 5602
5624 5621 5619 5618 5616 5613 5609 5604 5600 5598 5596 5594 5591 5588 5586 5583 5581 5578 5575 5572 5569 5567 5568 5567 5566 5565 5565 5570 5574 5574 5574 5574 5576 5578 5580 5582 5584 5586
5611 5608 5606 5604 5601 5598 5593 5589 5586 5583 5578 5574 5570 5566 5563 5561 5558 5556 5553 5551 5548 5545 5545 5544 5542 5542 5542 5544 5548 5552 5552 5553 5555 5558 5561 5564 5566 5569
5597 5595 5592 5588 5585 5580 5576 5572 5567 5562 5557 5552 5547 5543 5540 5538 5536 5534 5532 5530 5528 5525 5524 5522 5521 5521 5520 5521 5524 5527 5529 5533 5535 5537 5540 5543 5546 5549
5583 5579 5575 5570 5566 5561 5556 5551 5546 5541 5535 5529 5524 5521 5518 5516 5514 5511 5509 5507 5505 5503 5502 5501 5500 5500 5500 5502 5503 5506 5508 5510 5514 5516 5520 5524 5528 5531
5567 5562 5556 5550 5544 5539 5534 5529 5524 5519 5513 5508 5503 5499 5496 5493 5491 5488 5486 5484 5481 5481 5481 5482 5482 5482 5483 5484 5487 5489 5490 5492 5495 5498 5501 5506 5511 5515
5550 5541 5534 5528 5523 5517 5512 5507 5502 5497 5492 5488 5483 5479 5475 5473 5470 5468 5467 5464 5463 5462 5462 5463 5465 5467 5468 5470 5472 5473 5474 5476 5480 5483 5486 5490 5497 5501
5531 5522 5515 5509 5504 5498 5493 5488 5483 5478 5474 5470 5466 5462 5458 5456 5453 5451 5450 5449 5448 5448 5448 5448 5449 5450 5452 5457 5459 5459 5460 5464 5467 5470 5473 5477 5483 5490
5512 5505 5499 5493 5487 5482 5476 5471 5466 5461 5457 5453 5449 5446 5443 5440 5438 5437 5436 5436 5436 5436 5436 5437 5437 5438 5439 5443 5448 5451 5453 5454 5456 5460 5464 5469 5474 5480
5495 5490 5484 5478 5472 5466 5461 5455 5450 5445 5441 5437 5434 5431 5428 5426 5425 5425 5425 5425 5425 5425 5426 5428 5430 5431 5432 5434 5438 5443 5447 5449 5450 5452 5456 5460 5466 5471
5480 5475 5469 5463 5457 5452 5446 5441 5436 5431 5427 5423 5420 5418 5417 5415 5414 5414 5414 5415 5416 5417 5418 5421 5424 5425 5426 5427 5431 5435 5440 5445 5448 5450 5453 5455 5458 5464
5467 5461 5455 5450 5444 5439 5434 5428 5423 5419 5415 5412 5409 5408 5407 5406 5405 5405 5406 5407 5408 5410 5413 5415 5418 5419 5421 5423 5426 5430 5435 5439 5443 5446 5450 5454 5457 5460